User: anonymous   Login
Location: Unspecified
(0.0000°N, 0.0000°E)
Time: 06:39:02
(UTC+00:00)
Language:

Kosmos-2239 - Orbit

View from above orbital plane
View from above orbital plane
View from above satellite
View from above satellite

Ground track
Ground track

The orbit data is extracted from the following two-line orbital elements,

1 22590U 93020A   19082.16775507  .00000028  00000-0  12693-4 0  9995
2 22590  82.9295 303.3543 0024276 109.4540   9.3039 13.75398175303717
Epoch (UTC): 23 March 2019 04:01:34
Eccentricity: 0.0024276
inclination: 82.9295°
perigee height: 962 km
apogee height: 998 km
right ascension of ascending node: 303.3543°
argument of perigee: 109.4540°
revolutions per day: 13.75398175
mean anomaly at epoch: 9.3039°
orbit number at epoch: 30371

The dashed part of the orbit path shows where the satellite is in the earth's shadow,  

DLR